Location: *
(49.8044°N, 4.0558°E)
Time: 22:42:45
(UTC+00:00)

Cosmos 1459 Rocket - Pass Details

Date: 09 April 2020
Orbit: 936 x 1001 km, 83.0° (Epoch: 02 June)

Event Time Altitude Azimuth Distance (km) Brightness Sun altitude
Rises 23:28:13 0° 348° (NNW) 3,734 8.2 -32.0°
Reaches altitude 10° 23:30:48 10° 345° (NNW) 2,776 7.2 -32.1°
Enters shadow 23:36:24 58° 296° (WNW) 1,143 4.3 -32.1°
